TimeCDT,TemperatureF,Dew PointF,Humidity,Sea Level PressureIn,VisibilityMPH,Wind Direction,Wind SpeedMPH,Gust SpeedMPH,PrecipitationIn,Events,Conditions,WindDirDegrees,DateUTC
12:53 AM,71.1,55.0,57,29.86,10.0,WNW,13.8,-,N/A,,Clear,300,2013-06-28 05:53:00
1:53 AM,69.1,55.0,61,29.86,10.0,WNW,11.5,-,N/A,,Clear,300,2013-06-28 06:53:00
2:53 AM,69.1,55.0,61,29.86,10.0,NW,15.0,-,N/A,,Clear,310,2013-06-28 07:53:00
3:53 AM,66.9,55.9,68,29.87,10.0,WNW,11.5,-,N/A,,Clear,300,2013-06-28 08:53:00
4:53 AM,66.0,55.9,70,29.89,10.0,NW,12.7,-,N/A,,Clear,310,2013-06-28 09:53:00
5:53 AM,64.9,57.0,75,29.90,10.0,WNW,10.4,-,N/A,,Clear,300,2013-06-28 10:53:00
6:53 AM,66.0,57.0,73,29.91,10.0,WNW,11.5,-,N/A,,Clear,300,2013-06-28 11:53:00
7:53 AM,69.1,57.0,65,29.91,10.0,NW,16.1,25.3,N/A,,Clear,310,2013-06-28 12:53:00
8:53 AM,71.1,57.0,61,29.91,10.0,NNW,18.4,29.9,N/A,,Clear,330,2013-06-28 13:53:00
9:53 AM,72.0,57.0,59,29.92,10.0,NNW,17.3,31.1,N/A,,Clear,330,2013-06-28 14:53:00
10:53 AM,73.0,59.0,61,29.92,10.0,NNW,24.2,32.2,N/A,,Mostly Cloudy,340,2013-06-28 15:53:00
11:53 AM,75.9,57.9,54,29.92,10.0,NNW,27.6,34.5,N/A,,Partly Cloudy,330,2013-06-28 16:53:00
12:53 PM,78.1,57.9,50,29.92,10.0,NNW,27.6,33.4,N/A,,Partly Cloudy,340,2013-06-28 17:53:00
1:53 PM,79.0,57.9,48,29.91,10.0,NNW,23.0,-,N/A,,Partly Cloudy,340,2013-06-28 18:53:00
2:53 PM,80.1,55.9,43,29.90,10.0,NNW,24.2,34.5,N/A,,Clear,330,2013-06-28 19:53:00
3:53 PM,81.0,57.9,45,29.90,10.0,NNW,21.9,32.2,N/A,,Partly Cloudy,340,2013-06-28 20:53:00
4:53 PM,81.0,57.9,45,29.89,10.0,NNW,23.0,32.2,N/A,,Clear,330,2013-06-28 21:53:00
5:53 PM,81.0,57.9,45,29.89,10.0,NNW,20.7,-,N/A,,Clear,340,2013-06-28 22:53:00
6:53 PM,80.1,57.9,47,29.89,10.0,NNW,20.7,-,N/A,,Clear,340,2013-06-28 23:53:00
7:53 PM,77.0,57.0,50,29.90,10.0,NNW,17.3,29.9,N/A,,Partly Cloudy,340,2013-06-29 00:53:00
8:53 PM,73.9,57.9,57,29.90,10.0,North,16.1,-,N/A,,Clear,350,2013-06-29 01:53:00
9:53 PM,72.0,57.0,59,29.91,10.0,NNW,15.0,-,N/A,,Clear,340,2013-06-29 02:53:00
10:53 PM,69.1,57.0,65,29.92,10.0,NNW,15.0,-,N/A,,Clear,340,2013-06-29 03:53:00
11:53 PM,66.9,57.9,73,29.92,10.0,North,12.7,-,N/A,,Clear,350,2013-06-29 04:53:00